[[{"header":{"parameterUnit":"m.s-1","parameterCategory":1,"la1":30.2991,"la2":30.254,"lo1":-89.0895,"lo2":-89.0444,"dy":0.0017,"dx":0.0017,"nx":28,"ny":28,"refTime":"2025-12-15T09:00:00:Z","depth":0,"parameterNumber":2,"parameterNumberName":"U-component_of_WINDS"},"data":[0,0,0,0,0,0,0,0,0,0,0,0,0,0,0,0,0,0,0,0,0,0,0,0,0,0,0,0,0,0,0,0,0,0,0,0,0,0,0,0,0,0,0,0,0,0,0,0,0,0,0,0,0,0,0,0,0,0,-3.0625,-3.0625,0,-3.0594,-3.0594,-3.0593,-3.05,-3.0498,-3.0496,-3.0494,-3.0464,-3.0466,-3.0467,0,0,0,0,0,0,0,0,0,0,0,0,0,-3.0606,-3.0607,-3.0625,-3.0625,-3.0624,-3.0594,-3.0594,-3.0593,-3.0501,-3.0498,-3.0496,-3.0493,-3.0464,-3.0465,-3.0467,0,0,0,0,0,0,0,0,0,0,0,0,0,-3.0599,-3.0608,-3.0625,-3.0574,-3.057,-3.0594,-3.0594,-3.0593,-3.0501,-3.0498,-3.0495,-3.0492,-3.0464,-3.0465,-3.0467,-3.0539,0,0,-3.0472,-3.0473,0,0,0,0,0,0,0,0,-3.06,-3.06,-3.0582,-3.0578,-3.0573,-3.0548,-3.0576,-3.0575,-3.0502,-3.0527,-3.0494,-3.0491,-3.0495,-3.0494,-3.0495,-3.0537,-3.0536,-3.0472,-3.0473,-3.0474,-3.0474,0,0,0,0,0,0,0,-3.06,-3.0601,-3.0613,-3.0582,-3.0576,-3.0554,-3.055,-3.0576,-3.0529,-3.0525,-3.0518,-3.0515,-3.0492,-3.0493,-3.0493,-3.0536,-3.0472,-3.0474,-3.0475,-3.0475,-3.0636,-3.064,0,0,0,0,0,0,-3.0608,-3.0602,-3.0614,-3.0612,-3.0579,-3.0557,-3.0552,-3.0559,-3.0528,-3.052,-3.0518,-3.0511,-3.0492,-3.0492,-3.0492,-3.0574,-3.0474,-3.0476,-3.0476,-3.0633,-3.0637,-3.0641,0,0,0,0,0,0,-3.0608,-3.061,-3.0615,-3.0605,-3.0604,-3.056,-3.0569,-3.056,-3.0561,-3.0523,-3.0515,-3.0528,-3.049,-3.049,-3.0528,-3.0571,-3.0476,-3.0478,-3.0629,-3.0634,-3.0639,-3.0738,0,0,0,0,0,0,-3.0608,-3.061,-3.0636,-3.0606,-3.0605,-3.0651,-3.0572,-3.0562,-3.0564,-3.0555,-3.053,-3.0523,-3.0487,-3.0526,-3.053,-3.0572,-3.0479,-3.0625,-3.0632,-3.0637,-3.0731,-3.0746,-3.0759,0,0,0,0,0,-3.0607,-3.0666,-3.0638,-3.064,-3.0637,-3.0654,-3.0653,-3.0609,-3.0568,-3.0595,-3.057,-3.0524,-3.0567,-3.0531,-3.0534,-3.0578,-3.0622,-3.063,-3.0637,-3.0725,-3.0743,-3.0759,0,0,0,0,0,0,-3.0702,-3.0661,-3.063,-3.068,-3.0671,-3.0638,-3.0669,-3.063,-3.0633,-3.0624,-3.0571,-3.0566,-3.0612,-3.0599,-3.0559,-3.0646,-3.0587,-3.0595,-3.0652,-3.067,-3.0683,-3.0685,-3.048,0,0,0,0,0,-3.0729,-3.0746,-3.0709,-3.0758,-3.0755,-3.0713,-3.0719,-3.0687,-3.0675,-3.0671,-3.0649,-3.0641,-3.0652,-3.066,-3.0668,-3.0729,-3.0723,-3.0761,-3.0775,-3.0787,-3.0794,-3.0825,-3.0842,-3.0665,-3.0665,-3.0665,0,0,-3.0785,-3.0765,-3.0778,-3.0776,-3.0765,-3.0784,-3.0711,-3.0734,-3.0747,-3.0675,-3.0709,-3.0693,-3.068,-3.073,-3.0751,-3.072,-3.0842,-3.0796,-3.0806,-3.0807,-3.0835,-3.0852,-3.0867,-3.067,-3.0669,-3.0668,0,0,-3.0896,-3.0882,-3.092,-3.0911,-3.0896,-3.0868,-3.0878,-3.0851,-3.0837,-3.0871,-3.0817,-3.0833,-3.0854,-3.0846,-3.0846,-3.0956,-3.0914,-3.0961,-3.1033,-3.1064,-3.1078,-3.109,-3.1129,-3.1143,-3.0968,-3.0969,-3.0969,0,-3.0967,-3.0992,-3.0945,-3.0972,-3.0973,-3.0908,-3.0947,-3.0941,-3.093,-3.0932,-3.0898,-3.0923,-3.0909,-3.0957,-3.0984,-3.0986,-3.0995,-3.0962,-3.108,-3.1091,-3.1102,-3.1138,-3.1153,-3.0974,-3.0974,-3.0973,-3.0973,0,-3.108,-3.1099,-3.1132,-3.1122,-3.1127,-3.116,-3.1119,-3.113,-3.1098,-3.1075,-3.111,-3.1092,-3.1096,-3.1105,-3.1074,-3.1148,-3.113,-3.1089,-3.1028,-3.1125,-3.1158,-3.1172,-3.0982,-3.098,-3.0979,-3.0977,0,0,-3.1247,-3.1212,-3.1225,-3.122,-3.1199,-3.1213,-3.1244,-3.1247,-3.1257,-3.1252,-3.1277,-3.1296,-3.1258,-3.1258,-3.1226,-3.1253,-3.1341,-3.1209,-3.1208,-3.1233,-3.1422,-3.1452,-3.1468,-3.1314,-3.1317,-3.1319,-3.1423,0,-3.1351,-3.14,-3.136,-3.1417,-3.1434,-3.1374,-3.1401,-3.1391,-3.1371,-3.1383,-3.1361,-3.1375,-3.1324,-3.1324,-3.1348,-3.1325,-3.1378,-3.1318,-3.1336,-3.1337,-3.1339,-3.1486,-3.1517,-3.1616,-3.1435,-3.1437,-3.1439,0,-3.1478,-3.1478,-3.1537,-3.1512,-3.1518,-3.1543,-3.1543,-3.1555,-3.1544,-3.1527,-3.1528,-3.1489,-3.1518,-3.146,-3.15,-3.146,-3.1465,-3.1456,-3.1459,-3.1457,-3.1393,-3.1487,-3.1646,-3.1661,-3.1459,-3.1458,-3.1456,0,-3.1592,-3.1608,-3.1645,-3.1642,-3.1616,-3.1634,-3.1624,-3.161,-3.1615,-3.1616,-3.1618,-3.1623,-3.1625,-3.163,-3.1594,-3.1556,-3.1639,-3.1578,-3.1625,-3.1626,-3.1644,-3.1643,-3.1805,-3.1651,-3.165,-3.165,-3.165,0,-3.1711,-3.1749,-3.1696,-3.1718,-3.1759,-3.1714,-3.1756,-3.174,-3.1728,-3.1747,-3.1697,-3.1716,-3.1668,-3.1682,-3.1654,-3.1691,-3.1693,-3.1681,-3.1672,-3.1684,-3.1685,-3.1685,-3.1677,-3.1654,-3.1653,-3.1652,-3.1652,0,-3.1845,-3.1811,-3.1847,-3.1819,-3.1813,-3.1845,-3.1821,-3.1841,-3.1819,-3.1843,-3.1847,-3.1811,-3.1825,-3.179,-3.18,-3.1781,-3.1834,-3.1816,-3.1837,-3.1831,-3.188,-3.1875,-3.2046,-3.2066,-3.1901,-3.1903,-3.1904,0,-3.1922,-3.1949,-3.1925,-3.1934,-3.1926,-3.1941,-3.1946,-3.1904,-3.1911,-3.1901,-3.1923,-3.1933,-3.1938,-3.1965,-3.194,-3.1947,-3.1928,-3.1987,-3.1929,-3.194,-3.1927,-3.1925,-3.1928,-3.1999,-3.2001,-3.2003,-3.2004,0,-3.2061,-3.2044,-3.2052,-3.2055,-3.2062,-3.2063,-3.206,-3.2071,-3.2025,-3.2036,-3.205,-3.2055,-3.2065,-3.2075,-3.2078,-3.2068,-3.2029,-3.2023,-3.2034,-3.2045,-3.2056,-3.205,-3.1869,-3.2019,-3.2017,-3.2016,-3.2015,-3.2015,-3.2168,-3.219,-3.2176,-3.2187,-3.2181,-3.218,-3.2197,-3.2177,-3.2188,-3.2192,-3.2167,-3.2187,-3.2176,-3.2175,-3.217,-3.2185,-3.2158,-3.2174,-3.2178,-3.2182,-3.219,-3.2056,-3.2185,-3.2185,-3.2185,-3.2184,-3.2184,0,-3.2304,-3.2292,-3.2303,-3.2301,-3.231,-3.2273,-3.2269,-3.2279,-3.2297,-3.229,-3.2297,-3.2314,-3.2325,-3.2302,-3.2309,-3.2326,-3.2308,-3.2329,-3.2327,-3.2325,-3.2214,-3.2203,-3.2344,-3.2344,-3.2344,-3.2344,-3.2344,-3.2344,-3.2375,-3.241,-3.2391,-3.2423,-3.2412,-3.243,-3.2431,-3.243,-3.2424,-3.2445,-3.2454,-3.2439,-3.2426,-3.2432,-3.2441,-3.2434,-3.2438,-3.2466,-3.2452,-3.2349,-3.2333,-3.2318,-3.2307,-3.2467,-3.2468,-3.2562,-3.2563,-3.2563]},{"header":{"parameterUnit":"m.s-1","parameterCategory":1,"la1":30.2991,"la2":30.254,"lo1":-89.0895,"lo2":-89.0444,"dy":0.0017,"dx":0.0017,"nx":28,"ny":28,"refTime":"2025-12-15T09:00:00:Z","depth":0,"parameterNumber":3,"parameterNumberName":"V-component_of_WINDS"},"data":[0,0,0,0,0,0,0,0,0,0,0,0,0,0,0,0,0,0,0,0,0,0,0,0,0,0,0,0,0,0,0,0,0,0,0,0,0,0,0,0,0,0,0,0,0,0,0,0,0,0,0,0,0,0,0,0,0,0,0.4737,0.4738,0,0.4771,0.4771,0.4771,0.4845,0.4847,0.4848,0.485,0.4881,0.488,0.488,0,0,0,0,0,0,0,0,0,0,0,0,0,0.4736,0.4736,0.4737,0.4738,0.4738,0.4771,0.4771,0.4771,0.4845,0.4847,0.4848,0.485,0.4881,0.488,0.488,0,0,0,0,0,0,0,0,0,0,0,0,0,0.4749,0.4735,0.4737,0.4779,0.4783,0.477,0.4771,0.4772,0.4844,0.4847,0.4849,0.4851,0.4881,0.4881,0.488,0.4829,0,0,0.4877,0.4877,0,0,0,0,0,0,0,0,0.4749,0.4749,0.4772,0.4776,0.478,0.4806,0.4782,0.4791,0.4844,0.4821,0.485,0.4852,0.4854,0.4856,0.4857,0.4831,0.4832,0.4877,0.4876,0.4876,0.4876,0,0,0,0,0,0,0,0.4748,0.4748,0.475,0.4772,0.4777,0.4795,0.48,0.4784,0.4824,0.4823,0.4828,0.4832,0.4857,0.4857,0.4858,0.4832,0.4877,0.4876,0.4876,0.4875,0.4768,0.4766,0,0,0,0,0,0,0.4741,0.4747,0.4749,0.4751,0.477,0.4793,0.4798,0.4795,0.4825,0.4831,0.483,0.4835,0.4858,0.4859,0.4859,0.4803,0.4876,0.4875,0.4875,0.477,0.4768,0.4765,0,0,0,0,0,0,0.4741,0.474,0.4748,0.4751,0.4753,0.4791,0.4787,0.4795,0.4796,0.483,0.4837,0.4823,0.486,0.4861,0.4837,0.4805,0.4875,0.4874,0.4773,0.477,0.4766,0.469,0,0,0,0,0,0,0.474,0.474,0.4721,0.475,0.4753,0.4725,0.4785,0.4794,0.4794,0.4802,0.4825,0.4832,0.4861,0.4838,0.4836,0.4806,0.4873,0.4776,0.4772,0.4768,0.4695,0.4684,0.4675,0,0,0,0,0,0.474,0.4697,0.472,0.472,0.473,0.4723,0.4724,0.476,0.4792,0.4773,0.4795,0.4831,0.4809,0.4834,0.4833,0.4802,0.4778,0.4773,0.4768,0.47,0.4686,0.4675,0,0,0,0,0,0,0.4662,0.4702,0.4727,0.4692,0.4704,0.4735,0.4713,0.4745,0.4747,0.4753,0.4797,0.4802,0.4772,0.4785,0.4812,0.4756,0.48,0.4794,0.4748,0.4736,0.4726,0.4723,0.4873,0,0,0,0,0,0.4641,0.4633,0.4667,0.4633,0.4638,0.4674,0.4672,0.4699,0.4713,0.4718,0.4738,0.4749,0.4745,0.4741,0.4739,0.4698,0.4704,0.4676,0.4665,0.4657,0.4651,0.4632,0.462,0.4748,0.4748,0.4748,0,0,0.4597,0.4618,0.4609,0.4618,0.463,0.462,0.4678,0.4664,0.4657,0.4715,0.4695,0.471,0.4725,0.4692,0.4679,0.4702,0.4617,0.465,0.4643,0.4642,0.4625,0.4613,0.4602,0.4744,0.4745,0.4746,0,0,0.4513,0.4527,0.4501,0.4513,0.4531,0.4556,0.4549,0.4577,0.4589,0.4569,0.4613,0.4605,0.4597,0.4607,0.461,0.4531,0.4564,0.4529,0.4475,0.4455,0.4445,0.4437,0.4409,0.4399,0.4523,0.4523,0.4523,0,0.4456,0.4443,0.4484,0.4468,0.4471,0.4525,0.4499,0.4508,0.4524,0.4525,0.455,0.4542,0.4556,0.4527,0.4508,0.4509,0.4504,0.4526,0.4444,0.4435,0.4428,0.4402,0.4392,0.4519,0.4519,0.452,0.452,0,0.4373,0.4363,0.434,0.4356,0.4356,0.4336,0.4373,0.4369,0.4396,0.4418,0.4398,0.4416,0.442,0.4415,0.4441,0.439,0.4404,0.4436,0.4481,0.441,0.4387,0.4378,0.4513,0.4514,0.4516,0.4517,0,0,0.4239,0.4279,0.427,0.4279,0.4304,0.4297,0.4279,0.4284,0.4279,0.4289,0.4275,0.4268,0.4298,0.4302,0.433,0.4312,0.425,0.4347,0.4348,0.4329,0.4196,0.4173,0.4161,0.4272,0.427,0.4269,0.4195,0,0.4161,0.4133,0.417,0.4134,0.4127,0.4178,0.4163,0.4176,0.4197,0.4193,0.4215,0.421,0.425,0.4253,0.4238,0.426,0.4224,0.4266,0.426,0.4259,0.4255,0.4148,0.4123,0.4053,0.4186,0.4185,0.4184,0,0.4065,0.4072,0.4036,0.4065,0.4063,0.4048,0.4057,0.4052,0.4069,0.4085,0.409,0.4124,0.4108,0.4152,0.4132,0.416,0.4159,0.417,0.4168,0.4169,0.4217,0.4147,0.4031,0.402,0.417,0.4171,0.4172,0,0.3973,0.3973,0.3952,0.3957,0.399,0.3979,0.3992,0.4011,0.4012,0.4018,0.402,0.4024,0.4026,0.4029,0.4063,0.4091,0.4038,0.4084,0.4051,0.405,0.4038,0.4038,0.392,0.4036,0.4036,0.4036,0.4037,0,0.3882,0.3858,0.3911,0.3898,0.3873,0.3916,0.3889,0.3908,0.3924,0.3916,0.396,0.3951,0.3996,0.3991,0.4018,0.3997,0.3997,0.401,0.4017,0.4007,0.4005,0.4007,0.4013,0.4034,0.4034,0.4035,0.4035,0,0.3774,0.3809,0.3789,0.3823,0.383,0.3811,0.3839,0.3828,0.3852,0.3841,0.384,0.3877,0.3875,0.3909,0.3912,0.393,0.3898,0.3913,0.3892,0.3898,0.3863,0.3866,0.3743,0.3729,0.3852,0.3851,0.385,0,0.3714,0.3697,0.3729,0.3727,0.3739,0.3734,0.3736,0.3778,0.3778,0.3796,0.3783,0.3785,0.3788,0.3781,0.3808,0.3811,0.3828,0.3784,0.3828,0.3818,0.3828,0.3829,0.3828,0.3775,0.3773,0.3772,0.3771,0,0.3604,0.3623,0.3624,0.3632,0.3633,0.3641,0.3651,0.3647,0.3692,0.369,0.3689,0.3691,0.3696,0.3697,0.3705,0.3718,0.3752,0.3757,0.375,0.3739,0.3728,0.3734,0.3868,0.376,0.3761,0.3762,0.3762,0.3763,0.3519,0.3507,0.3529,0.3529,0.3542,0.3551,0.3543,0.3567,0.3567,0.3575,0.3599,0.3594,0.3612,0.3627,0.3637,0.3633,0.3654,0.3643,0.3641,0.3637,0.3631,0.3728,0.3635,0.3635,0.3635,0.3636,0.3636,0,0.3413,0.3429,0.3429,0.3444,0.3444,0.3477,0.3491,0.3489,0.3484,0.3499,0.3502,0.3501,0.3502,0.3529,0.3534,0.3526,0.3541,0.3526,0.3527,0.353,0.3612,0.3618,0.3513,0.3513,0.3513,0.3513,0.3513,0.3513,0.3357,0.3339,0.336,0.3349,0.3366,0.3362,0.3368,0.3376,0.3388,0.3386,0.3388,0.3406,0.3426,0.3433,0.3435,0.3443,0.3443,0.3422,0.3435,0.3512,0.3524,0.3535,0.3541,0.3422,0.3421,0.3354,0.3353,0.3353]}]]